Hourly Data Report for October 18, 2020

MUSKOKA
ONTARIO
Current Station Operator: NAVCAN

44°58'29.000" N
79°18'12.000" W
281.90 m
6115529
71532
YQA

Download Data

Hourly Data (October 2020)
Hourly Data Report for October 18, 2020
TIME Temp Definition
°C
Dew Point Definition
°C
Rel Hum Definition
%
Wind Dir Definition
10's deg

Wind Spd Definition
km/h
Visibility Definition
km
Stn Press Definition
kPa
Hmdx Definition


Wind Chill Definition


Weather Definition


00:00 4.2 2.6 89 13 5 16.1 98.88     LegendNANA
01:00 4.9 2.3 83 13 15 16.1 98.87     LegendNANA
02:00 5.9 2.3 78 14 13 16.1 98.82     Rain
03:00 6.2 4.1 86 14 17 16.1 98.74     Rain
04:00 6.4 5.0 91 13 21 16.1 98.71     Rain
05:00 6.9 5.4 90 13 11 16.1 98.75     Rain
06:00 7.3 5.1 86 13 15 16.1 98.73     LegendNANA
07:00 8.2 4.6 78 14 22 16.1 98.70     LegendNANA
08:00 7.9 5.2 83 14 15 16.1 98.71     Rain
09:00 8.7 4.6 75 14 22 16.1 98.65     LegendNANA
10:00 9.5 4.5 71 15 22 16.1 98.64     LegendNANA
11:00 8.0 6.4 90 16 18 11.3 98.69     Moderate Rain
12:00 8.0 7.2 95 16 15 8.1 98.64     Moderate Rain,Fog
13:00 8.0 7.1 94 15 21 9.7 98.58     Rain,Fog
14:00 8.2 7.3 94 15 18 14.5 98.53     Rain
15:00 8.3 7.4 94 12 18 16.1 98.38     Rain
16:00 8.6 7.1 90 15 18 16.1 98.37     LegendNANA
17:00 8.8 6.4 85 15 17 16.1 98.40     Rain
18:00 8.3 6.9 91 15 13 16.1 98.39     Rain
19:00 8.4 7.5 94 17 8 11.3 98.37     Rain
20:00 8.7 8.0 95 23 13 6.4 98.38     Rain,Fog
21:00 5.9 5.0 94 30 24 11.3 98.56     Rain
22:00 4.8 4.0 95 31 15 16.1 98.70     Rain
23:00 3.9 3.2 95 34 8 16.1 98.76     Rain

Notes on Data Quality.

Legend

  • E = Estimated
  • M = Missing
  • NA = Not Available*
  • [empty] = Indicates an unobserved value
Date modified: